QPF
0.00 0.00 0.00 0.00 0.00 0.00 0.00 0.00 0.00 0.00 0.00 0.00 0.00 0.00 0.00 0.00 0.00 0.00 0.00 0.00 0.00 0.00 0.00 0.00 0.00 0.00 0.00 0.00 0.00 0.00 0.00 0.00 0.00 0.00 0.00 0.00 0.00 0.00 0.00 0.00 0.00 0.00 0.00 0.00
0.00 0.00 0.00 0.00 0.00 0.00 0.00 0.00 0.00 0.00 0.00 0.00 0.00 0.00 0.00 0.00 0.00 0.00 0.00 0.00 0.00 0.00 0.00 0.00 0.00 0.00 0.00 0.00 0.00 0.00 0.00 0.00 0.00 0.00 0.00 0.00 0.00 0.00 0.00 0.00 0.00 0.00 0.00 0.00
0.00 0.00 0.00 0.00 0.00 0.00 0.00 0.00 0.00 0.00 0.00 0.00 0.00 0.00 0.00 0.00 0.00 0.00 0.00 0.00 0.00 0.00 0.00 0.00 0.00 0.00 0.00 0.00 0.00 0.00 0.00 0.01 0.01 0.01 0.02 0.02 0.01 0.01 0.00 0.00 0.00 0.00 0.00 0.00
0.00 0.00 0.00 0.00 0.00 0.00 0.00 0.00 0.00 0.00 0.00 0.00 0.00 0.00 0.00 0.00 0.00 0.00 0.00 0.00 0.00 0.00 0.00 0.00 0.00 0.00 0.00 0.00 0.00 0.01 0.01 0.01 0.02 0.03 0.04 0.03 0.03 0.02 0.02 0.01 0.01 0.00 0.00 0.00
0.00 0.00 0.00 0.00 0.00 0.00 0.00 0.00 0.00 0.00 0.00 0.00 0.00 0.00 0.00 0.00 0.00 0.00 0.00 0.00 0.00 0.00 0.00 0.00 0.00 0.00 0.00 0.00 0.00 0.01 0.01 0.01 0.02 0.03 0.04 0.05 0.05 0.05 0.04 0.03 0.02 0.01 0.01 0.00
0.00 0.00 0.00 0.00 0.00 0.00 0.00 0.00 0.00 0.00 0.00 0.00 0.00 0.00 0.00 0.00 0.00 0.00 0.00 0.00 0.00 0.00 0.00 0.00 0.00 0.00 0.00 0.01 0.01 0.01 0.01 0.02 0.03 0.04 0.05 0.06 0.06 0.06 0.06 0.05 0.04 0.02 0.01 0.01
0.00 0.00 0.00 0.00 0.00 0.00 0.00 0.00 0.00 0.00 0.00 0.00 0.00 0.00 0.00 0.00 0.00 0.00 0.00 0.00 0.00 0.00 0.00 0.00 0.00 0.01 0.01 0.01 0.01 0.01 0.02 0.03 0.03 0.04 0.05 0.06 0.06 0.06 0.07 0.06 0.05 0.03 0.02 0.01
0.00 0.00 0.00 0.00 0.00 0.00 0.00 0.00 0.00 0.00 0.00 0.00 0.00 0.00 0.00 0.00 0.00 0.00 0.00 0.00 0.00 0.00 0.00 0.00 0.00 0.01 0.01 0.01 0.01 0.02 0.02 0.03 0.04 0.04 0.04 0.06 0.07 0.06 0.07 0.07 0.06 0.05 0.03 0.02
0.00 0.00 0.00 0.00 0.00 0.00 0.00 0.00 0.00 0.00 0.00 0.00 0.00 0.00 0.00 0.00 0.00 0.00 0.00 0.00 0.00 0.00 0.00 0.00 0.00 0.01 0.01 0.01 0.02 0.03 0.04 0.04 0.04 0.03 0.04 0.05 0.06 0.07 0.07 0.07 0.06 0.05 0.04 0.03
0.00 0.00 0.00 0.00 0.00 0.00 0.00 0.00 0.00 0.00 0.00 0.00 0.00 0.00 0.00 0.00 0.00 0.00 0.00 0.00 0.00 0.00 0.00 0.00 0.00 0.01 0.02 0.02 0.03 0.04 0.06 0.05 0.04 0.05 0.04 0.04 0.06 0.06 0.06 0.06 0.05 0.05 0.04 0.03
0.00 0.00 0.00 0.00 0.00 0.00 0.00 0.00 0.00 0.00 0.00 0.00 0.00 0.00 0.00 0.00 0.00 0.00 0.00 0.00 0.00 0.00 0.00 0.00 0.01 0.01 0.02 0.03 0.04 0.06 0.06 0.05 0.05 0.05 0.05 0.05 0.05 0.06 0.06 0.07 0.06 0.05 0.03 0.02
0.00 0.00 0.00 0.00 0.00 0.00 0.00 0.00 0.00 0.00 0.00 0.00 0.00 0.00 0.00 0.00 0.00 0.00 0.00 0.00 0.00 0.00 0.00 0.01 0.01 0.02 0.03 0.04 0.05 0.06 0.07 0.05 0.04 0.04 0.05 0.04 0.05 0.06 0.05 0.05 0.05 0.04 0.03 0.02
0.00 0.00 0.00 0.00 0.00 0.00 0.00 0.00 0.00 0.00 0.00 0.00 0.00 0.00 0.00 0.00 0.00 0.00 0.00 0.00 0.00 0.00 0.01 0.01 0.02 0.03 0.04 0.04 0.05 0.06 0.07 0.04 0.03 0.03 0.04 0.04 0.05 0.06 0.07 0.07 0.06 0.04 0.03 0.02
0.00 0.00 0.00 0.00 0.00 0.00 0.00 0.00 0.00 0.00 0.00 0.00 0.00 0.00 0.00 0.00 0.00 0.00 0.00 0.00 0.00 0.00 0.01 0.02 0.02 0.04 0.04 0.05 0.05 0.06 0.07 0.05 0.03 0.04 0.04 0.04 0.04 0.04 0.04 0.05 0.05 0.03 0.02 0.03
0.00 0.00 0.00 0.00 0.00 0.00 0.00 0.00 0.00 0.00 0.00 0.00 0.00 0.00 0.00 0.00 0.00 0.00 0.00 0.00 0.00 0.01 0.01 0.02 0.03 0.04 0.05 0.05 0.05 0.06 0.07 0.05 0.04 0.03 0.03 0.03 0.02 0.02 0.03 0.04 0.03 0.02 0.02 0.02
0.00 0.00 0.00 0.00 0.00 0.00 0.00 0.00 0.00 0.00 0.00 0.00 0.00 0.00 0.00 0.00 0.00 0.00 0.00 0.00 0.00 0.01 0.02 0.03 0.04 0.05 0.06 0.05 0.05 0.05 0.06 0.07 0.06 0.03 0.02 0.01 0.01 0.02 0.02 0.02 0.02 0.01 0.02 0.02
0.00 0.00 0.00 0.00 0.00 0.00 0.00 0.00 0.00 0.00 0.00 0.00 0.00 0.00 0.00 0.00 0.00 0.00 0.00 0.00 0.00 0.01 0.02 0.04 0.04 0.04 0.05 0.05 0.05 0.05 0.06 0.07 0.06 0.03 0.01 0.01 0.01 0.01 0.01 0.01 0.01 0.02 0.02 0.03
0.00 0.00 0.00 0.00 0.00 0.00 0.00 0.00 0.00 0.00 0.00 0.00 0.00 0.00 0.00 0.00 0.00 0.00 0.00 0.00 0.00 0.01 0.02 0.02 0.03 0.03 0.04 0.04 0.04 0.04 0.05 0.05 0.04 0.03 0.02 0.01 0.01 0.01 0.01 0.01 0.01 0.02 0.02 0.02
0.00 0.00 0.00 0.00 0.00 0.00 0.00 0.00 0.00 0.00 0.00 0.00 0.00 0.00 0.00 0.00 0.00 0.00 0.00 0.00 0.01 0.02 0.02 0.02 0.04 0.03 0.02 0.03 0.03 0.02 0.03 0.03 0.02 0.03 0.02 0.01 0.01 0.01 0.00 0.00 0.01 0.01 0.02 0.02
0.00 0.00 0.00 0.00 0.00 0.00 0.00 0.00 0.00 0.00 0.00 0.00 0.00 0.00 0.00 0.00 0.00 0.00 0.00 0.00 0.01 0.01 0.01 0.02 0.02 0.02 0.02 0.02 0.03 0.02 0.01 0.01 0.01 0.03 0.03 0.01 0.01 0.01 0.00 0.00 0.00 0.01 0.01 0.03
0.00 0.00 0.00 0.00 0.00 0.00 0.00 0.00 0.00 0.00 0.00 0.00 0.00 0.00 0.00 0.00 0.00 0.00 0.00 0.00 0.00 0.01 0.01 0.02 0.02 0.02 0.02 0.02 0.02 0.02 0.01 0.01 0.01 0.01 0.02 0.01 0.01 0.00 0.00 0.00 0.01 0.01 0.02 0.05
0.00 0.00 0.00 0.00 0.00 0.00 0.00 0.00 0.00 0.00 0.00 0.00 0.00 0.00 0.00 0.00 0.00 0.00 0.00 0.00 0.00 0.01 0.01 0.01 0.01 0.02 0.03 0.02 0.01 0.01 0.01 0.01 0.01 0.01 0.01 0.01 0.00 0.00 0.00 0.00 0.01 0.02 0.03 0.05
0.00 0.00 0.00 0.00 0.00 0.00 0.00 0.00 0.00 0.00 0.00 0.00 0.00 0.00 0.00 0.00 0.00 0.00 0.00 0.00 0.00 0.01 0.01 0.01 0.01 0.02 0.02 0.01 0.01 0.01 0.01 0.01 0.01 0.01 0.00 0.00 0.00 0.00 0.00 0.00 0.01 0.01 0.02 0.02
0.00 0.00 0.00 0.00 0.00 0.00 0.00 0.00 0.00 0.00 0.00 0.00 0.00 0.00 0.00 0.00 0.00 0.00 0.00 0.00 0.00 0.00 0.00 0.01 0.01 0.01 0.01 0.01 0.01 0.01 0.01 0.00 0.01 0.01 0.00 0.00 0.00 0.00 0.00 0.00 0.00 0.00 0.00 0.01
0.00 0.00 0.00 0.00 0.00 0.00 0.00 0.00 0.00 0.00 0.00 0.00 0.00 0.00 0.00 0.00 0.00 0.00 0.00 0.00 0.00 0.00 0.00 0.00 0.01 0.01 0.01 0.00 0.00 0.01 0.01 0.01 0.01 0.00 0.00 0.00 0.00 0.00 0.00 0.00 0.00 0.00 0.00 0.00
0.01 0.01 0.00 0.00 0.00 0.00 0.00 0.00 0.00 0.00 0.00 0.00 0.00 0.00 0.00 0.00 0.00 0.00 0.00 0.00 0.00 0.00 0.00 0.00 0.00 0.01 0.01 0.00 0.00 0.00 0.00 0.01 0.01 0.00 0.00 0.00 0.00 0.00 0.00 0.00 0.00 0.00 0.00 0.00
0.01 0.01 0.01 0.01 0.00 0.00 0.00 0.00 0.00 0.00 0.00 0.00 0.00 0.00 0.00 0.00 0.00 0.00 0.00 0.00 0.00 0.00 0.00 0.00 0.00 0.00 0.01 0.00 0.00 0.01 0.00 0.00 0.00 0.00 0.00 0.00 0.00 0.00 0.00 0.00 0.00 0.00 0.00 0.00
MSLP
1015.49 1015.88 1016.24 1016.58 1016.87 1017.10 1017.26 1017.32 1017.29 1017.16 1016.95 1016.66 1016.33 1015.97 1015.62 1015.27 1014.93 1014.60 1014.26 1013.91 1013.52 1013.09 1012.63 1012.13 1011.61 1011.07 1010.54 1010.01 1009.50 1008.99 1008.48 1007.98 1007.48 1006.99 1006.53 1006.11 1005.77 1005.53 1005.39 1005.38 1005.47 1005.67 1005.92 1006.22
1015.94 1016.30 1016.58 1016.78 1016.91 1016.98 1016.98 1016.93 1016.83 1016.69 1016.53 1016.33 1016.12 1015.89 1015.65 1015.37 1015.07 1014.73 1014.34 1013.91 1013.43 1012.91 1012.37 1011.82 1011.26 1010.72 1010.18 1009.65 1009.12 1008.59 1008.04 1007.47 1006.90 1006.32 1005.78 1005.29 1004.89 1004.59 1004.43 1004.39 1004.47 1004.66 1004.92 1005.22
1016.34 1016.63 1016.81 1016.89 1016.88 1016.80 1016.68 1016.54 1016.39 1016.26 1016.14 1016.03 1015.92 1015.79 1015.63 1015.42 1015.13 1014.77 1014.34 1013.83 1013.27 1012.67 1012.06 1011.46 1010.87 1010.31 1009.77 1009.24 1008.71 1008.16 1007.58 1006.98 1006.36 1005.74 1005.14 1004.61 1004.17 1003.85 1003.65 1003.59 1003.65 1003.82 1004.06 1004.35
1016.66 1016.87 1016.94 1016.90 1016.77 1016.59 1016.37 1016.17 1016.00 1015.87 1015.79 1015.74 1015.70 1015.65 1015.54 1015.36 1015.08 1014.69 1014.21 1013.64 1013.00 1012.34 1011.68 1011.03 1010.43 1009.86 1009.31 1008.79 1008.26 1007.71 1007.12 1006.51 1005.87 1005.23 1004.62 1004.08 1003.62 1003.29 1003.08 1003.00 1003.04 1003.17 1003.38 1003.63
1016.88 1016.97 1016.94 1016.80 1016.58 1016.31 1016.05 1015.81 1015.63 1015.52 1015.47 1015.46 1015.46 1015.44 1015.36 1015.18 1014.88 1014.47 1013.94 1013.31 1012.63 1011.92 1011.22 1010.55 1009.92 1009.35 1008.81 1008.29 1007.77 1007.23 1006.65 1006.04 1005.41 1004.78 1004.18 1003.65 1003.20 1002.87 1002.65 1002.56 1002.57 1002.66 1002.82 1003.02
1016.93 1016.90 1016.76 1016.55 1016.27 1015.98 1015.70 1015.46 1015.29 1015.19 1015.16 1015.17 1015.19 1015.18 1015.08 1014.89 1014.56 1014.11 1013.54 1012.88 1012.16 1011.42 1010.70 1010.02 1009.39 1008.82 1008.28 1007.77 1007.26 1006.72 1006.16 1005.56 1004.95 1004.34 1003.76 1003.25 1002.82 1002.49 1002.28 1002.17 1002.15 1002.21 1002.32 1002.46
1016.76 1016.62 1016.41 1016.15 1015.86 1015.57 1015.31 1015.10 1014.96 1014.89 1014.88 1014.89 1014.90 1014.87 1014.75 1014.51 1014.15 1013.67 1013.07 1012.38 1011.64 1010.89 1010.17 1009.48 1008.86 1008.28 1007.75 1007.24 1006.72 1006.19 1005.63 1005.04 1004.45 1003.85 1003.30 1002.81 1002.39 1002.08 1001.86 1001.74 1001.69 1001.71 1001.78 1001.88
1016.35 1016.13 1015.88 1015.61 1015.34 1015.09 1014.89 1014.74 1014.65 1014.61 1014.61 1014.62 1014.61 1014.54 1014.38 1014.11 1013.71 1013.19 1012.57 1011.87 1011.13 1010.38 1009.66 1008.99 1008.36 1007.78 1007.24 1006.72 1006.19 1005.64 1005.07 1004.49 1003.89 1003.31 1002.77 1002.28 1001.88 1001.57 1001.35 1001.21 1001.14 1001.13 1001.16 1001.23
1015.72 1015.45 1015.20 1014.96 1014.75 1014.58 1014.46 1014.38 1014.35 1014.36 1014.37 1014.38 1014.34 1014.23 1014.02 1013.71 1013.27 1012.73 1012.10 1011.40 1010.67 1009.94 1009.23 1008.56 1007.93 1007.34 1006.78 1006.23 1005.67 1005.10 1004.51 1003.90 1003.29 1002.71 1002.16 1001.68 1001.28 1000.96 1000.73 1000.57 1000.49 1000.46 1000.47 1000.52
1014.92 1014.65 1014.43 1014.26 1014.14 1014.07 1014.05 1014.06 1014.10 1014.14 1014.17 1014.16 1014.09 1013.94 1013.70 1013.34 1012.88 1012.33 1011.70 1011.01 1010.30 1009.59 1008.89 1008.23 1007.59 1006.98 1006.39 1005.80 1005.20 1004.58 1003.95 1003.32 1002.69 1002.09 1001.53 1001.05 1000.64 1000.31 1000.07 999.90 999.80 999.75 999.75 999.79
1014.03 1013.80 1013.64 1013.56 1013.55 1013.59 1013.68 1013.78 1013.88 1013.96 1014.00 1013.98 1013.88 1013.69 1013.40 1013.02 1012.54 1011.99 1011.37 1010.70 1010.02 1009.32 1008.64 1007.98 1007.33 1006.69 1006.06 1005.42 1004.78 1004.12 1003.45 1002.78 1002.13 1001.52 1000.96 1000.47 1000.05 999.72 999.47 999.29 999.18 999.12 999.11 999.15
1013.13 1012.97 1012.90 1012.93 1013.04 1013.19 1013.37 1013.55 1013.71 1013.81 1013.85 1013.81 1013.68 1013.46 1013.14 1012.73 1012.25 1011.70 1011.09 1010.45 1009.79 1009.12 1008.45 1007.79 1007.12 1006.45 1005.78 1005.10 1004.41 1003.72 1003.02 1002.33 1001.68 1001.06 1000.51 1000.03 999.63 999.30 999.05 998.87 998.75 998.68 998.65 998.67
1012.30 1012.23 1012.27 1012.41 1012.62 1012.88 1013.14 1013.38 1013.57 1013.68 1013.71 1013.65 1013.49 1013.23 1012.88 1012.46 1011.97 1011.43 1010.85 1010.23 1009.59 1008.94 1008.28 1007.61 1006.93 1006.23 1005.53 1004.81 1004.09 1003.37 1002.67 1001.99 1001.35 1000.76 1000.24 999.79 999.42 999.12 998.89 998.71 998.58 998.50 998.45 998.45
1011.59 1011.62 1011.77 1012.01 1012.32 1012.66 1012.98 1013.25 1013.45 1013.57 1013.57 1013.48 1013.28 1012.99 1012.63 1012.19 1011.70 1011.17 1010.60 1010.01 1009.39 1008.75 1008.09 1007.41 1006.71 1005.99 1005.26 1004.52 1003.79 1003.07 1002.38 1001.73 1001.13 1000.61 1000.15 999.76 999.45 999.20 999.00 998.84 998.71 998.61 998.54 998.49
1011.00 1011.14 1011.39 1011.73 1012.11 1012.50 1012.86 1013.15 1013.35 1013.45 1013.43 1013.30 1013.07 1012.75 1012.36 1011.92 1011.43 1010.90 1010.35 1009.77 1009.15 1008.52 1007.85 1007.16 1006.44 1005.70 1004.95 1004.20 1003.47 1002.77 1002.11 1001.52 1001.00 1000.55 1000.19 999.89 999.66 999.48 999.33 999.20 999.09 998.98 998.87 998.78
1010.54 1010.77 1011.12 1011.53 1011.97 1012.40 1012.78 1013.07 1013.25 1013.32 1013.27 1013.11 1012.85 1012.51 1012.11 1011.65 1011.16 1010.64 1010.09 1009.52 1008.90 1008.26 1007.58 1006.86 1006.12 1005.36 1004.59 1003.84 1003.12 1002.44 1001.84 1001.32 1000.89 1000.54 1000.28 1000.09 999.96 999.86 999.78 999.71 999.61 999.50 999.37 999.23
1010.18 1010.50 1010.91 1011.38 1011.86 1012.31 1012.69 1012.98 1013.15 1013.19 1013.12 1012.93 1012.65 1012.30 1011.89 1011.43 1010.94 1010.42 1009.87 1009.29 1008.66 1008.00 1007.29 1006.55 1005.77 1004.98 1004.20 1003.44 1002.73 1002.09 1001.54 1001.09 1000.74 1000.50 1000.35 1000.27 1000.24 1000.24 1000.24 1000.22 1000.16 1000.07 999.92 999.74
1009.89 1010.27 1010.74 1011.25 1011.75 1012.21 1012.59 1012.86 1013.02 1013.05 1012.96 1012.77 1012.48 1012.13 1011.72 1011.27 1010.78 1010.26 1009.71 1009.11 1008.47 1007.78 1007.04 1006.26 1005.45 1004.63 1003.82 1003.05 1002.34 1001.72 1001.21 1000.81 1000.54 1000.39 1000.33 1000.35 1000.42 1000.51 1000.59 1000.64 1000.63 1000.56 1000.42 1000.23
1009.64 1010.08 1010.57 1011.10 1011.60 1012.06 1012.43 1012.70 1012.85 1012.88 1012.80 1012.62 1012.35 1012.01 1011.62 1011.18 1010.70 1010.19 1009.63 1009.02 1008.35 1007.64 1006.86 1006.05 1005.20 1004.35 1003.51 1002.72 1002.01 1001.39 1000.90 1000.54 1000.31 1000.21 1000.22 1000.32 1000.47 1000.63 1000.78 1000.90 1000.94 1000.91 1000.81 1000.63
1009.43 1009.88 1010.38 1010.90 1011.40 1011.84 1012.21 1012.48 1012.63 1012.68 1012.62 1012.47 1012.24 1011.93 1011.57 1011.16 1010.70 1010.20 1009.64 1009.02 1008.35 1007.60 1006.81 1005.96 1005.09 1004.20 1003.34 1002.53 1001.80 1001.18 1000.69 1000.33 1000.12 1000.04 1000.09 1000.22 1000.41 1000.63 1000.83 1001.00 1001.10 1001.12 1001.06 1000.92
1009.23 1009.66 1010.14 1010.64 1011.12 1011.55 1011.91 1012.18 1012.36 1012.44 1012.42 1012.32 1012.13 1011.88 1011.56 1011.19 1010.76 1010.27 1009.73 1009.11 1008.43 1007.69 1006.88 1006.02 1005.14 1004.24 1003.37 1002.54 1001.80 1001.16 1000.65 1000.28 1000.05 999.97 1000.00 1000.13 1000.33 1000.57 1000.80 1001.00 1001.14 1001.21 1001.20 1001.11
1009.04 1009.43 1009.86 1010.32 1010.76 1011.18 1011.54 1011.82 1012.03 1012.15 1012.19 1012.14 1012.02 1011.82 1011.55 1011.23 1010.84 1010.38 1009.86 1009.27 1008.60 1007.87 1007.07 1006.23 1005.35 1004.47 1003.60 1002.78 1002.03 1001.38 1000.85 1000.46 1000.20 1000.07 1000.07 1000.16 1000.34 1000.55 1000.78 1000.98 1001.15 1001.26 1001.30 1001.26
1008.82 1009.15 1009.52 1009.93 1010.34 1010.74 1011.10 1011.41 1011.65 1011.82 1011.92 1011.93 1011.87 1011.74 1011.53 1011.26 1010.91 1010.49 1010.00 1009.44 1008.80 1008.11 1007.35 1006.55 1005.71 1004.87 1004.04 1003.24 1002.51 1001.87 1001.32 1000.90 1000.60 1000.42 1000.36 1000.39 1000.51 1000.67 1000.86 1001.05 1001.21 1001.34 1001.40 1001.42
1008.55 1008.81 1009.12 1009.48 1009.86 1010.25 1010.61 1010.95 1011.23 1011.46 1011.62 1011.70 1011.71 1011.64 1011.48 1011.25 1010.95 1010.57 1010.12 1009.60 1009.01 1008.36 1007.66 1006.93 1006.16 1005.39 1004.62 1003.89 1003.20 1002.58 1002.04 1001.60 1001.26 1001.03 1000.90 1000.86 1000.89 1000.98 1001.11 1001.25 1001.39 1001.50 1001.58 1001.62
1008.20 1008.39 1008.65 1008.97 1009.33 1009.72 1010.10 1010.47 1010.81 1011.09 1011.32 1011.47 1011.53 1011.52 1011.41 1011.22 1010.95 1010.61 1010.20 1009.72 1009.18 1008.59 1007.97 1007.32 1006.65 1005.97 1005.29 1004.64 1004.02 1003.45 1002.94 1002.50 1002.14 1001.86 1001.66 1001.54 1001.49 1001.50 1001.55 1001.62 1001.70 1001.78 1001.84 1001.89
1007.73 1007.87 1008.10 1008.40 1008.76 1009.16 1009.58 1010.00 1010.39 1010.74 1011.03 1011.24 1011.36 1011.39 1011.33 1011.17 1010.93 1010.62 1010.24 1009.80 1009.31 1008.79 1008.25 1007.68 1007.11 1006.54 1005.98 1005.42 1004.89 1004.39 1003.93 1003.51 1003.15 1002.84 1002.59 1002.40 1002.27 1002.18 1002.14 1002.14 1002.15 1002.17 1002.20 1002.23
1007.13 1007.24 1007.46 1007.76 1008.14 1008.58 1009.05 1009.53 1009.99 1010.41 1010.77 1011.04 1011.21 1011.29 1011.26 1011.13 1010.91 1010.62 1010.26 1009.85 1009.41 1008.95 1008.48 1008.00 1007.53 1007.07 1006.61 1006.17 1005.74 1005.32 1004.92 1004.55 1004.19 1003.87 1003.59 1003.34 1003.14 1002.98 1002.85 1002.77 1002.71 1002.67 1002.66 1002.65
Thickness
5702 5705 5702 5695 5690 5686 5678 5670 5657 5657 5655 5654 5650 5644 5639 5634 5628 5622 5616 5610 5603 5597 5590 5584 5579 5574 5570 5566 5561 5556 5552 5550 5549 5549 5549 5549 5550 5551 5551 5551 5552 5552 5551 5551
5697 5699 5695 5686 5685 5683 5678 5672 5664 5657 5652 5656 5649 5639 5631 5625 5619 5612 5607 5601 5596 5589 5582 5576 5570 5566 5561 5555 5550 5544 5539 5537 5535 5534 5534 5535 5537 5538 5539 5541 5542 5542 5543 5544
5683 5691 5686 5674 5680 5678 5674 5669 5661 5648 5648 5649 5641 5633 5625 5620 5613 5605 5599 5594 5587 5580 5574 5568 5562 5556 5550 5545 5539 5532 5527 5524 5521 5519 5519 5520 5522 5524 5526 5528 5530 5532 5534 5536
5675 5678 5668 5677 5689 5684 5674 5668 5662 5654 5648 5643 5636 5630 5621 5614 5605 5599 5593 5587 5580 5573 5567 5561 5555 5548 5541 5535 5528 5522 5517 5512 5509 5506 5505 5506 5506 5508 5511 5514 5516 5520 5524 5528
5667 5668 5670 5678 5684 5678 5666 5658 5660 5651 5644 5638 5633 5624 5618 5614 5605 5595 5586 5579 5572 5568 5562 5555 5548 5542 5534 5527 5520 5513 5508 5503 5499 5495 5493 5493 5493 5495 5497 5500 5503 5508 5513 5518
5666 5667 5659 5673 5685 5682 5667 5652 5657 5649 5640 5631 5621 5608 5611 5609 5598 5589 5581 5574 5569 5564 5557 5550 5544 5536 5528 5521 5513 5506 5500 5494 5489 5485 5483 5482 5482 5483 5485 5488 5493 5497 5502 5508
5665 5661 5664 5680 5683 5675 5651 5649 5655 5647 5637 5627 5614 5605 5605 5598 5589 5582 5576 5571 5566 5559 5553 5547 5540 5531 5523 5515 5508 5501 5494 5487 5482 5478 5475 5474 5474 5474 5476 5479 5483 5487 5493 5499
5656 5657 5662 5684 5676 5663 5658 5659 5653 5645 5636 5626 5616 5608 5600 5593 5586 5579 5573 5569 5563 5556 5551 5545 5537 5527 5519 5512 5505 5497 5489 5483 5478 5473 5470 5470 5468 5469 5470 5472 5475 5479 5484 5490
5670 5670 5679 5680 5677 5673 5663 5655 5650 5642 5634 5624 5614 5605 5597 5589 5582 5576 5570 5565 5560 5554 5549 5543 5535 5524 5516 5509 5501 5494 5486 5480 5475 5471 5467 5465 5463 5464 5465 5466 5469 5473 5478 5484
5675 5679 5681 5680 5676 5672 5664 5655 5649 5640 5630 5621 5611 5602 5593 5585 5579 5574 5569 5564 5559 5553 5548 5542 5534 5524 5515 5507 5499 5491 5485 5479 5475 5470 5467 5464 5462 5462 5462 5464 5467 5470 5475 5481
5676 5680 5680 5676 5672 5668 5662 5654 5646 5637 5628 5619 5610 5600 5592 5584 5578 5572 5567 5562 5557 5551 5546 5540 5533 5525 5516 5507 5499 5492 5486 5481 5476 5472 5468 5466 5464 5463 5463 5465 5467 5470 5474 5479
5678 5682 5674 5672 5672 5666 5658 5650 5643 5634 5626 5617 5608 5599 5591 5583 5576 5570 5565 5561 5556 5551 5546 5540 5533 5526 5518 5509 5500 5494 5488 5483 5479 5475 5472 5470 5468 5468 5467 5466 5468 5470 5473 5479
5691 5687 5678 5675 5671 5665 5656 5649 5641 5632 5623 5614 5606 5597 5589 5581 5575 5569 5564 5560 5555 5551 5546 5541 5535 5528 5521 5512 5503 5497 5490 5486 5482 5479 5477 5475 5473 5472 5472 5470 5470 5472 5475 5480
5690 5683 5676 5672 5666 5661 5654 5646 5637 5628 5620 5611 5603 5596 5588 5580 5574 5569 5564 5559 5555 5551 5547 5542 5537 5532 5525 5516 5508 5501 5495 5491 5488 5484 5482 5480 5478 5476 5476 5476 5477 5477 5477 5481
5687 5683 5677 5672 5664 5657 5650 5640 5632 5622 5615 5609 5602 5594 5587 5579 5573 5568 5563 5559 5555 5552 5549 5545 5541 5536 5529 5522 5515 5508 5502 5498 5495 5491 5488 5485 5483 5482 5481 5481 5480 5480 5481 5482
5685 5679 5672 5666 5659 5652 5645 5637 5627 5619 5613 5606 5599 5593 5586 5578 5572 5567 5562 5558 5555 5553 5551 5547 5543 5539 5534 5528 5522 5516 5510 5506 5503 5499 5495 5493 5491 5489 5487 5486 5484 5484 5486 5486
5679 5672 5665 5659 5653 5647 5639 5632 5623 5616 5609 5603 5597 5590 5584 5577 5572 5569 5564 5560 5556 5553 5552 5548 5545 5543 5540 5535 5529 5524 5519 5514 5510 5506 5503 5500 5498 5496 5494 5491 5490 5490 5490 5490
5686 5678 5669 5660 5650 5642 5636 5629 5621 5614 5607 5601 5594 5587 5580 5575 5570 5566 5563 5560 5558 5557 5555 5551 5549 5547 5545 5541 5537 5532 5527 5522 5517 5513 5510 5508 5505 5503 5501 5498 5497 5496 5494 5494
5680 5672 5663 5656 5648 5639 5631 5624 5618 5611 5605 5597 5590 5583 5577 5572 5567 5564 5561 5559 5558 5558 5556 5554 5551 5551 5550 5547 5544 5540 5535 5531 5526 5521 5518 5514 5512 5510 5508 5505 5503 5501 5500 5500
5672 5665 5657 5649 5642 5634 5627 5621 5615 5608 5601 5594 5586 5580 5575 5571 5568 5564 5560 5557 5554 5552 5552 5552 5554 5554 5553 5551 5550 5546 5542 5538 5534 5529 5525 5521 5519 5516 5513 5511 5509 5508 5507 5508
5663 5656 5649 5641 5634 5629 5622 5617 5610 5603 5597 5590 5582 5577 5572 5568 5565 5561 5559 5559 5556 5553 5552 5554 5555 5554 5555 5554 5553 5552 5549 5545 5541 5537 5533 5529 5526 5523 5520 5518 5517 5517 5517 5518
5654 5647 5641 5634 5627 5621 5615 5609 5603 5598 5592 5585 5579 5573 5568 5565 5562 5559 5556 5554 5552 5550 5551 5554 5553 5553 5554 5557 5557 5555 5553 5551 5547 5544 5540 5537 5534 5531 5528 5526 5526 5526 5527 5528
5645 5639 5633 5627 5621 5615 5609 5603 5597 5592 5586 5580 5574 5569 5564 5560 5558 5556 5555 5553 5550 5548 5549 5551 5550 5552 5555 5558 5558 5557 5556 5554 5552 5549 5547 5544 5541 5539 5537 5535 5535 5534 5535 5537
5637 5632 5626 5620 5613 5607 5603 5598 5592 5586 5580 5575 5569 5564 5560 5556 5554 5551 5549 5548 5547 5546 5547 5547 5548 5551 5555 5556 5556 5556 5556 5556 5555 5554 5553 5551 5548 5546 5545 5544 5543 5542 5543 5545
5631 5627 5621 5615 5609 5605 5599 5593 5587 5581 5575 5569 5564 5560 5555 5551 5548 5548 5546 5546 5545 5544 5545 5546 5546 5548 5551 5552 5553 5553 5554 5555 5555 5556 5557 5556 5555 5553 5552 5551 5551 5550 5551 5552
5624 5623 5620 5616 5610 5602 5594 5587 5581 5575 5569 5564 5559 5555 5550 5547 5545 5543 5543 5542 5542 5541 5541 5541 5542 5544 5546 5547 5548 5549 5550 5551 5554 5556 5557 5558 5558 5558 5558 5557 5557 5557 5558 5559
5616 5614 5610 5606 5601 5596 5590 5584 5578 5572 5565 5560 5555 5550 5545 5542 5540 5539 5538 5538 5537 5537 5536 5536 5536 5537 5539 5541 5543 5544 5545 5546 5548 5551 5554 5556 5558 5559 5560 5560 5560 5561 5562 5563